{"data":{"norad_id":59546,"epoch":"2026-05-24T16:51:09.489888Z","epoch_age_seconds":97408,"freshness":"FRESH","line1":"1 59546U 24074N   26144.70219317  .00004341  00000+0  16720-3 0  9993","line2":"2 59546  43.0000 273.8884 0001197 269.8450  90.2265 15.27579417117641","mean_motion":15.27579417,"eccentricity":0.0001197,"inclination_deg":43,"raan_deg":273.8884,"arg_perigee_deg":269.845,"mean_anomaly_deg":90.2265,"bstar":0.0001672,"rev_number":11764,"period_min":94.266784690514,"perigee_km":482.22955756728,"apogee_km":483.8721259366,"semimajor_km":6861.1878417519,"source":"CELESTRAK","updated_at":"2026-05-25T13:38:18.981483Z"}}